Tracking 18951 objects as of 21-Jan-2018
HD Live streaming from Space Station
objects crossing your sky now

COSMOS 2289 (GLONASS)

Track COSMOS 2289 (GLONASS) now!
COSMOS 2289 (GLONASS) is classified as:


NORAD ID: 23204
Int'l Code: 1994-050B
Perigee: 19,113.6 km
Apogee: 19,160.5 km
Inclination: 66.1 °
Period: 675.7 minutes
Semi major axis: 25508 km
RCS: 3.5668 m2 (large)
Launch date: August 11, 1994
Source: Commonwealth of Independent States (former USSR) (CIS)
Launch site: TYURATAM MISSILE AND SPACE COMPLEX (TTMTR)
SV:
aabbcc
Your satellite tracking list
Your tracking list is empty




NASA's NSSDC Master Catalog

Two Line Element Set (TLE):
1 23204U 94050B   18019.91909312 -.00000009 +00000-0 +00000-0 0  9992
2 23204 066.1493 302.6427 0009189 326.4564 033.5307 02.13101959182242
Source of the keplerian elements: AFSPC